Content
SEND FEEDBACK

Daily
Averages
Monthly
Summary
Canada

QUEBEC CITY, QUEBEC


Home > North America > Canada > Quebec
Elevation: 72 meters     Latitude: 46 48N     Longitude: 071 23W

WEATHER
 
SELECT A DAY
Number of Records: 192,772;   Date Range: 6/30/96 - 9/15/14
 
SHARE

PRINT THIS DATA

[ ← Previous Day ]
WEATHER ALMANAC - 20 MARCH, 2013
[ Next Day → ]
[ °F ]   °C
Weather ElementAverageHighLow
Temperature-4.9 °C-3 °C (4:00 pm)-6 °C (1:00 am)
Dewpoint-10.7 °C-5 °C (4:00 pm) (7:00 pm)
Humidity84.7 %93 % (1:00 am)67 % (2:00 pm)
Wind Speed17.1 km/h27.8 km/h (3:34 pm)
Wind Gust31.5 km/h (3:04 am)
Weather ElementAverage
Visibility4.8 km
Wind DirectionSSE (147.6 °)

Weather ElementTotal
Precipitation---
Heating Degree Days22.8 (Base 18.3)
Averaged from 46 records on 20 March, 2013
WEATHER CONDITIONS BREAKOUT
WIND DIRECTION BREAKOUT
WEATHER BY HOUR - 20 MARCH, 2013
[ °F ]   °C
Local TimeTemperatureDewpointHumidityBarometerVisibilityWind DirectionWind SpeedGust SpeedPrecipitationEventsConditions
1:00 AM-6 °C-7 °C93 %1009.8 hPa1.6 kmENE (60°)16.7 km/h27.8 km/hSnowLight Snow
1:29 AM-6 °C-17.8 °C2.9 kmNE (50°)14.8 km/hSnowLight Snow
2:00 AM-5 °C-5.6 °C92 %1008.5 hPaENE (70°)13 km/h
2:00 AM-5 °C-7 °C86 %1008.5 hPa4.8 kmNE (50°)18.5 km/hSnowLight Snow
3:00 AM-5 °C-7 °C86 %1007.5 hPa4.8 kmNE (50°)20.4 km/hSnowLight Snow
3:04 AM-5 °C-17.8 °C9.7 kmNE (50°)18.5 km/h31.5 km/hSnowLight Snow
4:00 AM-6 °C-7 °C93 %1006.8 hPa4.8 kmNE (40°)13 km/hSnowLight Snow
5:00 AM-5.6 °C-6.7 °C90 %1005.8 hPaENE (70°)11.1 km/h
5:00 AM-5 °C-7 °C86 %1006.1 hPa4.8 kmNE (40°)20.4 km/hSnowLight Snow
6:00 AM-6 °C-8 °C86 %1005.8 hPa4.8 kmENE (70°)20.4 km/h29.6 km/hSnowLight Snow
6:47 AM-6 °C-17.8 °C1.9 kmENE (60°)16.7 km/h27.8 km/hSnowLight Snow
7:00 AM-6 °C-7 °C93 %1005.8 hPa1.9 kmENE (60°)20.4 km/hSnowLight Snow
7:36 AM-6 °C-17.8 °C1.6 kmENE (60°)18.5 km/hSnowLight Snow
8:00 AM-6 °C-8 °C86 %1005.4 hPa1.9 kmEast (80°)13 km/hSnowLight Snow
8:38 AM-6 °C-17.8 °C1.6 kmEast (80°)14.8 km/h27.8 km/hSnowLight Snow
9:00 AM-6 °C-8 °C86 %1005.1 hPa1.6 kmENE (70°)14.8 km/hSnowLight Snow
9:37 AM-6 °C-17.8 °C2.9 kmENE (60°)9.3 km/hSnowLight Snow
10:00 AM-6 °C-9 °C80 %1005.1 hPa2.9 kmNE (40°)14.8 km/hSnowLight Snow
10:21 AM-6 °C-17.8 °C3.2 kmNE (50°)16.7 km/hSnowLight Snow
10:32 AM-6 °C-17.8 °C2.4 kmNE (40°)18.5 km/hSnowLight Snow
11:00 AM-5 °C-7.8 °C75 %1004.4 hPaNNE (20°)7.4 km/h
11:00 AM-5 °C-8 °C80 %1004.4 hPa2.4 kmNNE (30°)11.1 km/hSnowLight Snow
11:35 AM-5 °C-17.8 °C2.4 kmNNW (340°)7.4 km/hSnowLight Snow
12:00 PM-4 °C-9 °C69 %1004.1 hPa12.9 kmCalmOvercast
1:00 PM-4 °C-9 °C69 %1003.7 hPa16.1 kmSW (220°)13 km/hSnowLight Snow Showers
2:00 PM-3.3 °C-7.2 °C67 %1002.4 hPaWest (260°)14.8 km/h
2:00 PM-4 °C-7 °C80 %1003 hPa9.7 kmWSW (240°)18.5 km/hSnowLight Snow Showers
2:20 PM-4 °C-17.8 °C4 kmSW (230°)20.4 km/hSnowLight Snow Showers
2:28 PM-4 °C-17.8 °C1.9 kmSW (220°)20.4 km/hSnowLight Snow Showers
3:00 PM-4 °C-7 °C80 %1002.4 hPa6.4 kmSW (230°)20.4 km/hSnowLight Snow Showers
3:34 PM-4 °C-17.8 °C1.9 kmSW (230°)27.8 km/hSnowLight Snow Showers
3:45 PM-4 °C-17.8 °C6.4 kmSW (230°)24.1 km/hSnowLight Snow Showers
4:00 PM-3 °C-5 °C86 %1002 hPa6.4 kmSW (230°)22.2 km/hSnowLight Snow Showers
4:26 PM-3 °C-17.8 °C2.4 kmWSW (240°)24.1 km/hSnowLight Snow Showers
4:40 PM-4 °C-17.8 °C6.4 kmWSW (240°)24.1 km/hSnowLight Snow Showers
5:00 PM-4 °C-6 °C86 %1002 hPa4.8 kmWSW (240°)24.1 km/hSnowLight Snow Showers
5:00 PM-3.3 °C-5 °C82 %1002 hPaWSW (240°)18.5 km/h
6:00 PM-4 °C-6 °C86 %1002.4 hPa4.8 kmWSW (250°)24.1 km/hSnowLight Snow Showers
7:00 PM-4 °C-6 °C86 %1003 hPa4.8 kmWest (260°)16.7 km/hSnowLight Snow Showers
8:00 PM-4.4 °C-5 °C92 %1002.7 hPaWSW (250°)13 km/h
8:00 PM-5 °C-6 °C93 %1002.7 hPa3.2 kmWSW (250°)14.8 km/hSnowLight Snow Showers
9:00 PM-5 °C-6 °C93 %1002.4 hPa8 kmWest (260°)11.1 km/hSnowLight Snow Showers
10:00 PM-5 °C-7 °C86 %1001.7 hPa8 kmSW (220°)16.7 km/hSnowLight Snow
11:00 PM-5 °C-6.1 °C88 %1001.4 hPaWSW (250°)18.5 km/h
11:00 PM-5 °C-7 °C86 %1001.4 hPa12.9 kmSW (230°)22.2 km/hMostly Cloudy
11:20 PM-5 °C-17.8 °C4.8 kmSW (230°)20.4 km/hSnowLight Snow Showers
Hourly data recorded from CYQB, located 0 kilometers away from Quebec City, Quebec







STORIES FROM OUR PARTNERS